Location: Hannover
(52.3723°N, 9.7339°E)
Time: 18:50:37
(UTC+02:00)

ISS - Pass Details

Date: 24 March 2019
Orbit: 408 x 410 km, 51.6° (Epoch: 22 April)

Event Time Altitude Azimuth Distance (km) Brightness Sun altitude
Rises 21:03:18 0° 251° (WSW) 2,334 0.6 -21.3°
Reaches altitude 10° 21:05:24 10° 248° (WSW) 1,473 -0.6 -21.5°
Enters shadow 21:07:22 32° 237° (WSW) 724 -2.4 -21.8°
